TimePST,TemperatureF,Dew PointF,Humidity,Sea Level PressureIn,VisibilityMPH,Wind Direction,Wind SpeedMPH,Gust SpeedMPH,PrecipitationIn,Events,Conditions,WindDirDegrees,DateUTC
12:53 AM,41.0,34.0,76,30.15,10.0,South,4.6,-,N/A,,Overcast,190,2012-12-04 08:53:00
1:53 AM,44.1,30.9,60,30.14,10.0,South,4.6,-,N/A,,Overcast,170,2012-12-04 09:53:00
2:53 AM,46.9,28.0,48,30.14,10.0,Variable,4.6,-,N/A,,Overcast,0,2012-12-04 10:53:00
3:53 AM,46.0,16.0,30,30.14,10.0,South,10.4,-,N/A,,Mostly Cloudy,190,2012-12-04 11:53:00
4:53 AM,46.9,7.0,20,30.16,10.0,SSW,15.0,23.0,N/A,,Overcast,200,2012-12-04 12:53:00
5:53 AM,45.0,12.9,27,30.19,10.0,SW,4.6,-,N/A,,Overcast,230,2012-12-04 13:53:00
6:53 AM,45.0,14.0,29,30.19,10.0,SSW,3.5,-,N/A,,Overcast,200,2012-12-04 14:53:00
7:53 AM,45.0,18.0,34,30.19,10.0,Variable,3.5,-,N/A,,Overcast,0,2012-12-04 15:53:00
8:53 AM,46.9,24.1,41,30.19,10.0,Calm,Calm,-,N/A,,Overcast,0,2012-12-04 16:53:00
9:53 AM,48.0,19.9,33,30.21,10.0,SE,3.5,-,N/A,,Overcast,130,2012-12-04 17:53:00
10:53 AM,48.9,21.0,33,30.22,10.0,Calm,Calm,-,N/A,,Overcast,0,2012-12-04 18:53:00
11:53 AM,48.9,26.1,41,30.18,10.0,ENE,4.6,-,0.00,,Overcast,60,2012-12-04 19:53:00
12:53 PM,50.0,18.0,28,30.16,10.0,South,10.4,-,0.00,Rain,Light Rain,170,2012-12-04 20:53:00
1:53 PM,48.9,23.0,36,30.13,10.0,SSE,5.8,-,0.00,Rain,Light Rain,160,2012-12-04 21:53:00
2:53 PM,50.0,23.0,35,30.12,10.0,Variable,5.8,-,0.00,,Overcast,0,2012-12-04 22:53:00
3:53 PM,46.0,27.0,47,30.14,10.0,SSE,4.6,-,0.01,Rain,Light Rain,150,2012-12-04 23:53:00
4:53 PM,48.0,23.0,37,30.14,10.0,Variable,6.9,19.6,0.00,,Overcast,0,2012-12-05 00:53:00
5:53 PM,39.9,30.9,70,30.19,6.0,SSE,10.4,25.3,0.04,Rain,Light Rain,150,2012-12-05 01:53:00
6:53 PM,39.0,35.1,86,30.16,10.0,Calm,Calm,-,0.00,Rain,Light Rain,0,2012-12-05 02:53:00
7:53 PM,45.0,34.0,65,30.14,10.0,Variable,5.8,-,0.02,Rain,Light Rain,0,2012-12-05 03:53:00
8:53 PM,41.0,36.0,82,30.17,10.0,Calm,Calm,-,0.00,,Overcast,0,2012-12-05 04:53:00
9:27 PM,42.8,30.2,61,30.24,4.0,South,12.7,25.3,0.02,Rain,Rain,190,2012-12-05 05:27:00
9:38 PM,42.8,30.2,61,30.22,8.0,SSE,13.8,23.0,0.03,Rain,Light Rain,150,2012-12-05 05:38:00
9:53 PM,43.0,30.9,62,30.13,10.0,SE,11.5,21.9,0.03,,Mostly Cloudy,140,2012-12-05 05:53:00
10:53 PM,44.1,30.9,60,30.10,10.0,Variable,6.9,-,0.00,,Scattered Clouds,0,2012-12-05 06:53:00
11:53 PM,46.0,32.0,58,30.08,7.0,South,12.7,32.2,0.00,Rain,Light Rain,180,2012-12-05 07:53:00